Вернуться в каталог

NIMBUS 2 DEB

АктивенLEO
NORAD 28977·DEBRIS·🇺🇸 United States

Запущен May 15, 1966 с Vandenberg Space Force Base

Loading…

Ближайшие Пролёты (ближайшие 24 часа)

TLE

СвежийSource: Space-Track

Эпоха: Sep 13, 2026, 21:07 UTC

1 28977U 66040AN  26256.88012714  .00001194  00000-0  18317-2 0  9998
2 28977 100.4634 224.2783 0044766 203.7248 183.9590 13.53696356 24776

Отслеживайте NIMBUS 2 DEB в реальном времени с AllMySat

Download on the App Store